GFSSE_prec_cloud_021.txt.gz
Cloud_Cover
96 100 100 99 91 65 100 100 100 100 100 100 100 100 100 100 100 100 79 100 100 100 50 5 0 0 13 5 3 22 87 94 94 99 91 62 77 62 38 1 0 1 5
100 99 95 100 100 100 100 100 100 100 100 99 100 98 36 85 100 98 100 100 100 28 5 0 0 5 32 0 5 31 100 100 57 100 100 100 35 99 33 1 0 0 3
64 86 94 97 100 100 100 100 100 100 100 100 100 69 9 100 100 100 100 99 5 3 3 0 0 5 2 0 5 5 100 100 100 100 95 72 100 100 94 4 0 4 3
16 16 29 34 34 98 100 100 56 33 80 57 9 55 100 100 100 90 70 0 0 0 3 5 5 0 0 0 7 25 100 98 100 99 100 100 100 100 100 8 0 4 1
64 37 59 33 89 83 68 9 100 95 98 99 100 100 100 98 4 0 0 0 0 0 1 5 5 2 0 0 0 100 58 95 94 100 78 99 99 95 98 2 0 2 0
99 47 98 99 99 85 100 99 100 100 100 100 100 7 0 0 0 0 0 0 0 0 0 5 5 0 0 0 1 72 48 6 100 87 44 100 32 94 62 5 0 0 8
85 54 21 12 100 100 78 70 18 0 1 0 0 0 0 0 0 0 0 0 2 5 5 5 3 0 3 0 0 12 22 71 72 78 11 100 30 85 5 25 2 0 6
6 34 31 4 2 5 5 65 86 4 0 0 0 0 0 0 0 0 0 0 4 1 5 13 23 5 6 15 57 1 31 100 61 97 67 100 100 89 67 34 4 8 2
30 26 35 29 9 46 68 1 0 1 0 0 0 0 2 0 0 0 0 3 3 5 5 61 98 27 5 5 54 60 57 98 95 98 60 64 100 100 100 12 4 3 2
22 28 37 26 31 0 0 1 0 1 3 11 5 0 0 0 0 0 5 5 5 5 12 5 63 100 99 7 5 69 100 100 100 94 34 75 100 80 100 28 13 1 3
60 60 42 22 0 7 11 0 0 0 0 0 1 0 0 0 0 0 0 0 0 0 1 3 77 90 64 96 90 64 97 98 80 92 74 81 100 100 94 99 76 44 1
13 17 10 13 0 0 0 0 0 0 0 0 0 0 0 0 0 0 3 0 1 2 3 5 96 99 85 31 100 100 92 84 72 90 98 100 71 100 74 82 100 64 28
0 0 14 31 28 3 4 0 0 0 0 0 0 0 0 0 3 0 0 0 0 0 0 0 0 3 78 100 100 100 100 61 90 23 46 98 100 100 64 100 100 100 98
0 0 0 8 36 23 1 0 0 0 0 0 0 0 0 0 4 5 0 0 0 0 0 0 0 0 0 26 98 100 100 100 19 94 100 90 100 100 99 100 100 100 100
0 0 0 2 12 33 42 0 0 0 0 0 0 0 0 0 4 51 0 1 4 0 0 0 0 0 0 0 5 98 100 100 100 5 4 5 9 100 100 100 100 100 100
0 0 0 2 14 21 10 16 0 0 0 0 0 0 39 0 0 94 0 0 1 0 0 0 0 0 0 0 0 0 87 100 100 100 79 43 5 6 94 100 100 100 100
0 0 0 0 0 2 0 0 0 0 0 0 0 0 3 68 3 1 3 5 0 0 0 0 0 0 0 0 0 0 0 8 100 100 100 100 99 95 5 100 100 100 100
0 0 0 0 0 0 0 0 0 0 0 0 0 0 0 0 0 0 5 0 0 0 0 0 0 0 0 0 0 0 0 0 0 88 100 100 100 98 33 5 14 100 100
0 0 0 0 0 0 0 0 0 4 0 0 0 0 0 5 3 0 1 0 0 28 0 0 0 0 0 0 0 0 0 0 0 0 35 100 100 91 8 5 6 33 100
0 0 0 0 0 0 0 14 10 2 0 0 0 0 0 0 0 0 0 0 0 0 0 0 5 5 9 0 0 0 0 0 0 0 0 40 100 100 8 4 1 5 84
0 0 0 0 0 0 2 0 0 0 0 0 0 0 0 0 0 0 6 72 2 3 3 0 5 26 5 5 5 1 5 4 0 0 0 0 4 100 100 27 26 10 11
0 0 0 0 0 0 0 0 0 0 0 0 0 0 0 0 0 29 9 5 5 5 5 5 5 7 76 65 21 5 13 33 5 0 0 0 0 9 100 100 57 26 52
0 0 0 0 0 0 0 8 6 0 0 0 0 0 0 0 1 5 20 11 32 5 5 22 5 13 99 92 74 24 5 38 5 7 2 0 0 0 4 99 100 94 54
0 0 0 0 0 0 0 0 0 0 0 0 0 0 0 0 6 5 5 52 97 12 5 6 5 5 20 97 100 16 34 15 70 7 87 6 0 0 0 0 95 100 96
0 0 0 0 0 0 0 0 0 0 0 3 0 0 0 3 3 5 77 100 21 6 5 5 11 5 6 52 79 100 91 5 21 77 5 51 4 0 0 0 0 52 37
0 0 0 0 0 0 0 0 0 0 0 0 0 0 0 0 7 52 96 5 5 6 20 13 6 5 6 94 54 86 100 41 3 2 20 3 5 0 4 0 0 0 0

GFSSE_prec_cloud_024.txt.gz
Cloud_Cover
100 85 85 86 76 93 100 100 100 100 100 100 100 100 100 100 100 12 66 100 100 100 30 5 0 5 5 5 0 20 62 83 96 36 7 5 96 71 5 0 1 11 0
100 98 87 100 100 100 100 100 100 100 100 100 100 100 100 100 100 100 100 100 35 0 0 0 0 5 4 5 5 73 97 49 26 25 100 44 100 14 0 0 5 14 3
70 54 86 100 100 100 100 100 100 100 100 99 83 87 51 29 100 100 89 0 0 0 0 0 1 5 3 0 5 100 100 100 100 98 77 100 97 91 93 0 0 5 3
100 92 89 64 93 90 100 97 88 96 44 60 74 100 100 100 100 5 0 0 0 0 0 0 2 5 3 0 5 100 100 100 100 100 82 100 64 100 100 4 4 3 5
100 98 80 13 96 100 96 89 91 77 99 100 100 95 56 11 0 0 0 0 1 2 5 1 5 3 0 0 2 47 94 100 100 100 74 7 40 89 4 0 0 0 5
64 100 49 7 95 100 100 100 100 100 48 16 0 0 0 0 0 0 0 3 5 5 5 5 5 3 5 0 0 24 13 98 100 100 93 28 83 52 7 0 0 0 1
100 100 98 100 90 5 22 71 49 5 4 0 0 0 0 0 0 0 0 0 0 0 5 6 6 2 5 4 1 63 7 9 100 93 81 95 88 94 72 2 0 3 0
84 60 9 0 2 5 5 5 19 0 0 0 0 0 0 0 0 0 0 2 4 5 5 48 19 5 5 23 100 14 5 5 98 100 41 73 93 20 7 26 1 5 2
80 95 56 24 0 1 0 0 0 0 0 0 0 0 0 0 0 0 0 2 4 5 5 77 5 5 5 5 5 76 85 88 30 68 45 85 100 88 27 5 10 4 6
48 100 61 73 17 0 0 0 0 0 0 0 1 0 0 0 0 0 0 0 0 0 9 85 100 97 11 5 5 76 100 85 96 100 100 88 95 8 46 14 5 9 4
62 95 88 92 25 29 29 2 0 0 0 0 0 0 0 3 0 0 17 0 0 0 3 74 100 100 100 23 8 100 100 100 99 100 100 90 95 49 9 49 7 6 1
45 94 29 34 31 34 43 6 1 0 0 0 0 1 0 0 0 1 0 0 0 0 0 0 0 2 71 100 97 98 99 88 100 74 96 92 100 84 50 100 95 27 37
2 2 1 3 21 28 29 4 6 0 0 0 0 0 0 0 16 22 40 83 69 20 47 94 91 100 28 22 93 100 100 94 70 100 51 98 100 100 100 100 100 100 100
0 0 6 7 3 1 5 0 0 1 0 0 0 0 0 1 15 11 59 69 10 98 1 35 93 25 72 83 71 58 100 93 100 85 80 37 48 92 100 100 100 100 100
0 0 0 2 30 28 14 0 0 0 0 0 0 0 0 18 37 44 42 0 17 21 85 4 48 51 72 93 81 77 71 88 100 100 97 5 16 100 100 100 100 100 100
0 0 0 0 2 3 2 1 0 0 0 2 4 1 0 0 23 33 6 65 17 22 44 11 1 8 21 100 100 100 66 16 33 100 100 94 69 38 9 96 100 100 100
0 0 0 0 0 0 0 0 0 0 0 11 7 12 99 53 4 33 84 75 16 88 0 19 9 81 47 64 99 100 76 71 0 19 100 100 83 87 88 5 96 100 100
0 0 0 0 0 1 0 0 0 3 21 27 7 1 7 13 0 37 54 3 6 0 79 20 17 71 33 0 1 0 0 0 0 0 2 100 100 51 63 66 27 100 100
0 0 0 0 0 0 0 4 5 19 3 32 29 0 9 13 2 4 0 36 9 14 18 67 5 6 1 4 6 5 8 0 0 0 0 0 88 97 56 5 10 24 99
0 0 0 0 0 0 7 18 1 0 3 0 23 8 22 2 6 28 17 6 5 59 43 80 5 0 1 3 5 5 5 5 0 0 2 0 0 75 57 31 31 2 13
0 0 0 0 0 0 7 5 6 2 0 19 24 22 23 20 1 15 26 3 0 28 20 3 4 0 1 4 0 6 99 79 5 0 0 0 0 0 67 36 70 52 27
0 0 0 0 0 0 0 0 13 46 29 7 23 19 4 17 21 9 9 38 5 4 5 6 5 5 5 0 2 2 12 67 78 65 6 10 0 0 0 63 41 79 89
0 0 0 0 0 0 0 3 16 8 3 23 3 3 0 3 2 13 5 1 2 5 0 0 1 4 5 5 4 5 5 20 64 94 77 17 4 0 0 0 52 65 53
0 0 0 0 0 0 0 0 0 0 0 0 0 0 0 0 0 0 5 0 5 5 5 4 0 0 0 3 7 2 5 5 100 98 100 100 4 4 0 0 0 37 100
0 0 0 0 0 0 0 0 0 0 0 0 0 0 0 0 4 100 7 1 5 5 5 5 5 0 0 2 0 0 5 6 99 100 100 100 62 3 5 0 0 0 2
0 0 0 0 0 0 0 0 0 0 0 0 0 0 0 0 90 100 88 65 16 5 5 2 4 5 0 0 2 1 6 85 100 100 100 100 100 48 4 3 3 0 0

GFSSE_prec_cloud_030.txt.gz
Cloud_Cover
100 100 100 100 100 100 100 100 100 100 100 95 100 100 95 62 35 100 100 4 6 0 0 0 5 9 2 2 3 0 3 2 0 0 2 5 4 0 0 0 20 4 5
60 91 36 75 99 100 91 95 100 100 100 100 98 56 16 100 100 100 3 0 0 0 0 0 12 5 5 0 3 24 16 71 63 4 12 5 25 52 0 0 6 0 1
74 42 99 99 30 28 100 100 100 100 100 5 5 20 100 100 88 0 0 0 0 2 5 6 7 9 5 5 3 11 5 64 74 46 100 85 2 5 6 1 0 0 6
70 61 6 5 5 86 100 100 100 77 38 6 73 100 100 57 0 0 0 3 0 0 1 2 5 3 5 5 5 5 4 5 25 38 90 52 34 49 1 5 4 0 0
96 26 74 100 100 100 100 100 59 33 87 58 2 0 0 3 0 0 0 0 0 0 2 5 5 5 2 1 3 4 0 4 80 11 91 25 5 4 0 0 0 0 10
100 100 100 100 100 100 88 100 100 41 3 0 0 0 6 0 0 0 0 0 0 0 0 5 3 5 5 0 0 4 20 99 5 75 33 3 5 6 0 2 0 0 0
87 74 90 32 28 75 77 63 2 0 0 0 4 0 0 0 0 0 0 0 0 0 3 0 0 4 5 6 3 0 5 67 59 59 27 5 5 5 2 0 0 0 3
96 22 1 0 0 0 0 0 0 0 0 0 0 0 0 0 0 0 0 0 0 0 2 4 1 0 0 3 24 5 4 5 100 100 90 5 5 5 3 0 0 0 0
8 7 5 8 5 5 0 0 0 0 0 0 0 0 0 0 0 0 0 0 0 0 5 1 1 0 1 0 2 5 2 6 100 100 53 4 5 5 4 0 0 0 0
5 4 0 0 0 0 0 0 0 0 0 0 0 0 0 0 0 0 0 0 0 0 1 0 0 2 5 5 4 0 92 14 100 100 100 49 3 4 5 5 1 8 6
0 1 10 2 0 0 0 0 0 0 0 0 0 0 0 74 15 100 0 0 0 0 5 0 0 0 76 33 42 0 94 40 100 100 100 14 5 5 1 4 30 2 0
0 68 0 8 0 4 0 0 0 0 0 0 0 0 0 94 44 3 1 2 66 83 54 12 56 6 100 98 100 42 7 72 100 100 100 82 13 9 13 1 7 72 25
20 64 0 12 0 20 34 0 0 0 0 0 54 0 7 100 46 88 90 87 47 100 50 91 87 40 100 99 29 98 50 54 100 100 100 100 5 27 4 5 5 34 96
0 2 13 57 0 92 90 0 0 0 28 36 8 76 96 53 100 40 10 38 92 100 98 98 79 82 9 9 14 92 4 89 42 66 100 100 60 4 5 5 5 5 5
0 80 100 0 0 45 100 0 100 100 68 10 89 4 8 100 100 81 65 15 32 34 100 51 54 0 25 0 12 72 0 38 83 88 23 80 73 53 67 29 16 48 75
0 35 10 0 0 0 0 8 14 13 99 84 94 85 0 57 72 100 0 28 36 31 100 19 12 0 6 56 4 0 0 1 1 11 52 39 42 100 78 100 46 79 100
0 0 0 0 0 0 0 0 0 0 2 98 58 16 2 2 5 0 0 0 87 3 55 2 100 98 37 2 31 0 0 1 100 98 6 0 0 83 100 24 13 14 100
0 0 0 0 0 0 0 4 0 0 6 85 11 89 49 85 23 0 0 0 30 5 6 76 1 84 68 8 0 0 0 0 0 2 12 38 0 10 1 18 12 5 67
0 0 0 0 24 0 0 0 0 45 25 54 84 83 2 24 16 0 48 91 98 76 73 99 0 99 0 0 0 0 2 0 5 67 51 66 50 37 47 0 12 10 8
0 0 0 0 1 56 0 0 2 17 99 76 45 29 88 0 86 6 49 14 100 98 12 97 32 92 0 0 0 0 0 5 2 85 66 95 51 13 28 100 1 42 44
0 0 0 0 0 22 0 0 1 0 30 0 0 12 4 95 1 29 10 100 94 56 65 100 6 0 0 0 0 0 0 8 25 100 97 100 59 98 44 1 0 100 46
0 0 0 0 0 0 0 2 0 0 40 0 1 61 23 2 100 67 6 83 74 70 84 1 0 0 0 0 0 0 80 58 100 100 5 100 100 56 53 2 0 0 6
0 0 0 0 0 0 0 0 18 97 51 100 19 100 82 2 1 13 26 65 100 100 72 11 0 4 0 0 0 0 0 63 84 100 55 54 100 100 98 14 5 0 1
0 0 0 0 0 0 0 6 0 0 0 32 6 35 96 5 0 38 12 59 72 97 97 44 5 0 0 0 9 0 0 1 32 11 100 10 99 100 100 100 20 29 3
0 0 0 0 0 0 0 0 0 0 0 0 38 31 0 0 0 75 100 3 0 5 78 82 100 20 42 10 0 51 0 12 5 5 5 100 63 100 100 100 100 21 4
0 0 0 0 0 0 0 0 0 56 0 0 59 0 0 0 0 0 0 0 0 0 2 16 80 72 100 82 7 0 4 36 100 43 3 48 100 100 100 100 100 100 94

GFSSE_prec_cloud_033.txt.gz
Cloud_Cover
85 100 100 100 100 100 100 100 93 97 100 100 100 100 99 57 25 100 100 9 0 0 5 3 5 2 3 0 2 2 5 5 5 2 0 0 1 0 0 0 14 11 4
94 98 100 100 57 30 14 83 98 96 57 48 97 64 5 38 100 85 2 0 0 0 1 0 5 4 2 0 0 25 91 78 29 5 5 5 7 51 4 5 1 1 0
5 5 47 5 34 13 88 38 96 100 30 11 57 97 5 1 0 0 0 0 0 4 4 0 5 5 4 0 3 0 32 24 6 39 20 0 5 13 77 0 8 1 0
5 5 5 5 5 55 16 100 100 100 100 100 81 2 0 0 0 0 0 2 0 0 0 5 5 6 2 5 5 2 10 5 5 5 73 0 0 0 0 0 14 3 0
79 35 71 97 100 41 96 100 100 100 100 29 0 0 0 0 0 2 0 0 0 0 0 5 5 4 0 0 1 4 5 5 77 75 31 0 0 0 0 0 2 5 0
5 87 77 98 77 100 100 96 9 64 2 0 0 0 0 0 0 0 0 0 0 0 0 1 0 0 0 5 0 0 5 5 73 13 63 5 1 0 0 19 20 4 0
4 5 39 32 1 0 0 0 0 0 0 0 0 0 0 0 0 0 0 0 0 0 0 0 0 0 0 4 0 3 43 85 100 100 100 100 79 9 6 8 8 0 0
0 1 1 1 3 5 1 1 0 0 0 0 0 0 0 0 0 0 0 0 0 0 0 0 0 0 3 5 5 74 38 79 100 100 100 100 100 66 5 0 6 0 1
0 0 0 4 1 15 0 0 0 0 0 0 0 0 0 0 0 0 0 1 3 0 0 0 4 5 0 2 48 90 33 99 100 100 100 100 100 98 22 0 0 0 1
0 0 0 0 0 0 0 0 0 0 0 0 0 0 0 0 10 0 0 5 34 47 5 86 100 99 84 5 5 33 100 100 100 100 100 100 100 100 100 5 0 0 2
0 0 0 0 0 0 0 0 0 0 0 0 0 0 6 5 3 0 10 90 8 40 1 1 21 68 19 9 0 21 96 100 100 100 100 100 100 100 100 78 5 4 3
0 0 0 0 0 0 0 0 0 0 0 0 0 3 24 22 5 24 33 5 6 3 1 1 0 0 0 8 0 96 100 100 94 100 100 100 100 100 100 100 5 4 5
0 0 0 0 0 0 0 0 0 0 0 5 5 5 62 70 4 98 84 38 5 4 3 0 0 0 1 0 13 3 14 100 100 100 100 100 100 100 100 75 11 5 5
0 0 0 0 0 0 0 0 0 0 0 3 0 20 5 14 7 37 6 1 85 92 28 5 3 0 9 0 20 46 60 5 84 98 100 45 57 100 100 43 98 10 5
0 0 0 0 0 0 6 1 0 14 27 0 0 9 5 0 52 8 21 32 64 12 8 10 60 0 27 32 55 1 0 2 2 10 44 15 71 100 100 33 6 5 20
0 0 8 0 0 10 46 0 68 100 24 79 19 78 89 0 3 22 25 0 27 41 98 3 8 28 100 67 88 0 0 9 68 45 44 0 3 99 100 100 98 68 16
0 0 8 0 0 0 0 0 0 20 0 93 31 5 30 0 1 0 0 0 3 10 14 1 32 6 8 6 0 0 2 0 72 20 21 24 40 1 7 5 44 100 100
0 0 0 0 0 0 0 0 0 0 0 13 1 52 80 71 5 0 0 0 0 37 26 0 0 0 68 0 0 0 0 0 0 98 6 91 97 5 2 2 5 33 100
0 0 0 0 0 0 0 0 0 0 0 0 3 5 99 1 4 0 0 0 98 90 91 0 100 1 39 0 0 0 0 0 0 22 74 60 21 46 25 0 62 11 87
0 0 0 0 0 0 0 0 0 0 0 0 0 15 92 92 0 28 0 6 64 60 21 3 10 51 6 0 0 0 0 0 0 13 45 74 100 5 14 100 41 0 57
0 0 0 0 0 0 0 0 0 0 0 0 0 0 0 0 8 0 0 7 99 61 57 99 5 0 2 1 3 0 0 4 29 24 0 1 3 42 41 48 84 10 74
0 0 0 0 0 0 0 0 0 0 0 0 19 38 0 30 13 16 0 0 45 60 5 84 88 80 0 0 1 0 0 0 81 5 10 8 0 15 72 42 29 17 68
0 0 0 0 0 0 0 0 0 0 11 27 0 28 100 79 7 0 5 22 0 0 1 5 1 32 70 3 0 0 0 2 74 6 98 5 0 2 99 100 100 54 4
0 0 0 0 0 0 0 0 0 0 3 0 96 66 0 0 0 0 0 0 0 0 0 0 0 0 3 5 1 3 0 1 2 33 100 10 6 5 41 98 100 100 72
0 0 0 0 0 0 0 0 0 0 0 0 22 11 0 0 0 0 0 0 0 0 5 4 5 5 5 12 6 4 1 0 1 64 100 100 23 84 75 89 100 100 100
0 0 0 0 0 0 0 0 0 0 0 0 0 0 0 0 0 0 0 0 12 20 5 4 5 5 97 34 8 5 5 8 1 25 93 14 6 60 100 11 100 100 70